User: anonymous   Login
Location: Overspoor
(51.4747°N, 5.6641°E)
Time: 02:37:51
(UTC+02:00)
Language:

BUGSAT 1 - Orbit

View from above orbital plane
View from above orbital plane
View from above satellite
View from above satellite

Ground track
Ground track

The orbit data is extracted from the following two-line orbital elements,

1 40014U 14033E   22180.56972239  .00001942  00000-0  17386-3 0  9990
2 40014  98.1419 179.4719 0031034   0.7348 359.3897 14.96762904437954
Epoch (UTC): 29 June 2022 13:40:24
Eccentricity: 0.0031034
inclination: 98.1419°
perigee height: 555 km
apogee height: 598 km
right ascension of ascending node: 179.4719°
argument of perigee: 0.7348°
revolutions per day: 14.96762904
mean anomaly at epoch: 359.3897°
orbit number at epoch: 43795

The dashed part of the orbit path shows where the satellite is in the earth's shadow,  

DLR